User: anonymous   Login
Location: LDNL
(36.4545°S, 141.6685°E)
Time: 23:31:02
(UTC+10:00)
Language:

Max Valier Satellite - Orbit

View from above orbital plane
View from above orbital plane
View from above satellite
View from above satellite

Ground track
Ground track

The orbit data is extracted from the following two-line orbital elements,

1 42778U 17036P   22274.10549807  .00011844  00000-0  42901-3 0  9993
2 42778  97.1952 311.6217 0008828 317.4583  42.5973 15.28493286293036
Epoch (UTC): 01 October 2022 02:31:55
Eccentricity: 0.0008828
inclination: 97.1952°
perigee height: 474 km
apogee height: 486 km
right ascension of ascending node: 311.6217°
argument of perigee: 317.4583°
revolutions per day: 15.28493286
mean anomaly at epoch: 42.5973°
orbit number at epoch: 29303

The dashed part of the orbit path shows where the satellite is in the earth's shadow,  

DLR